Regional Weather Roundup
Issued by NWS

Home | Current Version | Previous Version | Graphics & Text | Print | Product List | Glossary On
Versions: 1 2 3 4 5 6 7 8 9 10 11 12 13 14 15 16 17 18 19 20 21 22 23 24 25 26 27
000
ASUS45 KBOU 271507
RWRCO

WEATHER ROUNDUP FOR COLORADO
NATIONAL WEATHER SERVICE DENVER/BOULDER CO
900 AM MDT WED JUL 27 2016

NOTE: "FAIR" INDICATES FEW OR NO CLOUDS BELOW 12000 FEET WITH NO
SIGNIFICANT WEATHER AND/OR OBSTRUCTIONS TO VISIBILITY.

COZ001>005-013-030-031-271600-
...NORTHWEST COLORADO...

CITY           SKY/WX    TMP DP  RH WIND       PRES   REMARKS
CRAIG          FAIR      69  41  36 NE9       30.30S
HAYDEN         FAIR      63  39  42 E12       30.32S
MEEKER         FAIR      66  42  41 VRB5      30.32S
MOUNT WERNER   NOT AVBL
STEAMBOAT SPGS FAIR      59  41  50 CALM      30.36R
WALDEN         FAIR      59  39  47 SE5       30.44S
$$

COZ006>008-011-271600-
...WEST CENTRAL VALLEYS...

CITY           SKY/WX    TMP DP  RH WIND       PRES   REMARKS
GRAND JUNCTION FAIR      75  44  33 SE7       30.21R
MONTROSE       FAIR      72  44  36 CALM      30.29S
EAGLE          SUNNY     57  39  51 CALM      30.41S
RIFLE          FAIR      69  42  37 NE5       30.28S
DELTA          FAIR      73  43  33 SE3       30.26S
NUCLA          FAIR      72  41  33 CALM      30.33S
$$

COZ017>023-064>068-271600-
...SOUTHWEST COLORADO...

CITY           SKY/WX    TMP DP  RH WIND       PRES   REMARKS
DURANGO        FAIR      67  47  48 CALM      30.34S
CORTEZ         FAIR      74  47  38 CALM      30.28S
PAGOSA SPRINGS FAIR      66  44  44 CALM      30.43S
TELLURIDE      FAIR      63  41  44 CALM      30.55S
WOLF CREEK PAS FAIR      55  36  47 NE17G24   30.75S
$$

COZ009-010-012-014-032>034-037-058>063-271600-
...CENTRAL COLORADO...

CITY           SKY/WX    TMP DP  RH WIND       PRES   REMARKS
ASPEN          FAIR      64  39  39 CALM      30.42S
BUENA VISTA    FAIR      64  34  33 W3        30.44S
COPPER MTN     FAIR      59  32  36 W6        30.74R
BERTHOUD PASS  FAIR      50  34  53 N7        30.77R
COTTONWOOD PAS FAIR      64  34  32 CALM      30.57R
GUNNISON       FAIR      55  41  58 NW3       30.49S
KREMMLING      FAIR      54  37  54 CALM      30.45F
LEADVILLE      FAIR      58  31  35 CALM      30.57R
MONARCH PASS   FAIR      57  30  35 MISG      30.84R
SALIDA         FAIR      63  40  42 CALM      30.49S
SUNLIGHT       FAIR      63  32  31 MISG      30.67R
WILKERSON PASS FAIR      61  28  29 N5        30.69S
$$

COZ069>075-271600-
...SAN LUIS VALLEY/SANGRE DE CRISTO MOUNTAINS...

CITY           SKY/WX    TMP DP  RH WIND       PRES   REMARKS
ALAMOSA        FAIR      60  47  61 CALM      30.41S
LA VETA PASS   FAIR      61  43  51 S3        30.58R
SAGUACHE       FAIR      68  41  37 NW13      30.43S
$$

COZ035-036-038>040-271600-
...NORTHERN COLORADO FRONT RANGE...

CITY           SKY/WX    TMP DP  RH WIND       PRES   REMARKS
DENVER INTL AP FAIR      70  50  49 N12       30.23R
DMNS CITY PARK   N/A     72  48  42 N5G12     30.24S
AURORA         MOSUNNY   71  49  46 N12       30.25R
FRONT RANGE AP NOT AVBL
ERIE MUNI ARPT FAIR      71  47  41 N7        30.23R
BOULDER MUN AP FAIR      72  45  37 N3        30.24R
CENTENNIAL     FAIR      73  42  32 N15       30.26R
BROOMFIELD     MOSUNNY   72  45  37 N13       30.26R
LONGMONT       FAIR      75  48  37 NE9       30.24R
$$

COZ041-046-047-076>085-087-088-271600-
...PIKES PEAK/PALMER DIVIDE AND SOUTHERN FOOTHILLS...

CITY           SKY/WX    TMP DP  RH WIND       PRES   REMARKS
COLO. SPRINGS  FAIR      71  56  58 CALM      30.28S
A. F. ACADEMY  SUNNY     69  56  62 VRB2      30.28S
SCHRIEVER AFB  NOT AVBL
ELLICOTT       FAIR     N/A N/A N/A S3        30.25S
FALCON         NOT AVBL
FORT CARSON    FAIR      70  58  65 CALM      30.25R
LIMON          FAIR      76  56  49 SW14      30.20F
MONUMENT HILL  FAIR      72  46  40 NW6       30.34R
TRINIDAD       NOT AVBL
$$

COZ042>045-048>051-090-091-271600-
...NORTHEAST COLORADO...

CITY           SKY/WX    TMP DP  RH WIND       PRES   REMARKS
GREELEY ARPT   FAIR      70  57  64 NE10      30.21R
AKRON          FAIR      73  57  57 SW6       30.19R
BURLINGTON     CLOUDY    65  62  90 SE14      30.16R FOG
WRAY           NOT AVBL
STERLING       PTSUNNY   70  61  73 NE7       30.17S
HOLYOKE        FAIR      72  61  68 W3        30.18R
FORT MORGAN    FAIR      71  58  64 E3        30.18S
$$

COZ086-089-092>099-271600-
...SOUTHEAST COLORADO...

CITY           SKY/WX    TMP DP  RH WIND       PRES   REMARKS
PUEBLO         FAIR      74  61  63 W9        30.18F
LA JUNTA       FAIR      77  62  59 NW5       30.15R
LAMAR          FAIR      74  64  71 NE7       30.11S
SPRINGFIELD      N/A     77  62  59 SW7       30.14S
$$




USA.gov is the U.S. government's official web portal to all federal, state and local government web resources and services.